T 1997 Jan. 27.07530 TT Marsden q 0.0055567 (2000.0) P Q Peri. 116.46289 +0.00702123 -0.77703677 Node 46.17226 -0.88358751 -0.29953645 e 1.0 Incl. 119.25397 +0.46821343 -0.55361699 >From 7 observations 1997 Jan. 26.
m1 = 19.5 + 5 logΔ + 10.0 log r